Flight Track Log - Related Links

Times and Time Zones

All times are in EDT time to prevent confusion due to time zone crossing. See the FLG3825 flight status page for this flight to view local times or setup timezone preferences in your user account.

Time Position Orientation Groundspeed Altitude Reporting Facility
EDT Latitude Longitude Course Direction KTS MPH feet Rate Location/Type
Sat 03:26:32 PM 40.4967 -80.2803 287° West 173 199 3,100  Level Cleveland Center
Sat 03:27:34 PM 40.5119 -80.3444 287° West 180 207 4,900 2,293 Climbing Cleveland Center
Sat 03:28:35 PM 40.5294 -80.4267 286° West 224 258 7,800 2,878 Climbing Cleveland Center
Sat 03:29:37 PM 40.5503 -80.5219 286° West 226 260 10,800 2,177 Climbing Cleveland Center
Sat 03:30:39 PM 40.5706 -80.6158 286° West 263 303 12,300 1,306 Climbing Cleveland Center
Sat 03:31:41 PM 40.5922 -80.7194 285° West 288 331 13,500 1,512 Climbing Cleveland Center
Sat 03:32:42 PM 40.6172 -80.8361 286° West 322 371 15,400 1,756 Climbing Cleveland Center
Sat 03:33:44 PM 40.6425 -80.9531 286° West 331 381 17,100 1,645 Climbing Cleveland Center
Sat 03:34:46 PM 40.6689 -81.0822 285° West 341 392 18,800 1,597 Climbing Cleveland Center
Sat 03:35:48 PM 40.6950 -81.2064 286° West 345 397 20,400 1,415 Climbing Cleveland Center
Sat 03:36:49 PM 40.7208 -81.3319 285° West 348 400 21,700 1,171 Climbing Cleveland Center
Sat 03:37:51 PM 40.7500 -81.4606 287° West 358 412 22,800 1,210 Climbing Cleveland Center
Sat 03:38:53 PM 40.7969 -81.6047 293° West 361 415 24,200 1,161 Climbing Cleveland Center
Sat 03:39:55 PM 40.8386 -81.7308 294° West 367 422 25,200 1,024 Climbing Cleveland Center
Sat 03:40:56 PM 40.8778 -81.8583 292° West 368 423 26,300 1,122 Climbing Cleveland Center
Sat 03:41:58 PM 40.9019 -81.9944 283° West 372 428 27,500 1,403 Climbing Cleveland Center
Sat 03:43:00 PM 40.9247 -82.1264 283° West 367 422 29,200 1,452 Climbing Cleveland Center
Sat 03:44:02 PM 40.9469 -82.2531 283° West 357 411 30,500 1,317 Climbing Cleveland Center
Sat 03:45:03 PM 40.9686 -82.3783 283° West 350 403 31,900 1,366 Climbing Cleveland Center
Sat 03:46:05 PM 40.9886 -82.4989 282° West 338 389 33,300 1,016 Climbing Cleveland Center
Sat 03:47:07 PM 41.0100 -82.6178 283° West 330 380 34,000 341 Climbing Cleveland Center
Sat 03:48:08 PM 41.0294 -82.7400 282° West 332 382 34,000  Level Cleveland Center
Sat 03:49:10 PM 41.0503 -82.8642 283° West 336 387 34,000  Level Cleveland Center
Sat 03:50:12 PM 41.0819 -82.9814 290° West 336 387 34,000  Level Cleveland Center
Sat 03:51:14 PM 41.1367 -83.1108 299° West 338 389 34,000  Level Cleveland Center
Sat 03:52:15 PM 41.1778 -83.2072 300° West 338 389 34,000  Level Cleveland Center
Sat 03:53:17 PM 41.2231 -83.3172 299° West 339 390 34,000  Level Cleveland Center
Sat 03:54:19 PM 41.2786 -83.4508 299° West 340 391 34,000  Level Cleveland Center
Sat 03:55:21 PM 41.3247 -83.5608 299° West 340 391 34,000  Level Cleveland Center
Sat 03:56:23 PM 41.3700 -83.6728 298° West 342 394 34,000  Level Cleveland Center
Sat 03:57:24 PM 41.4153 -83.7833 299° West 343 395 34,000  Level Cleveland Center
Sat 03:58:26 PM 41.4608 -83.8953 299° West 343 395 34,000  Level Cleveland Center
Sat 03:59:28 PM 41.5058 -84.0078 298° West 343 395 34,000  Level Cleveland Center
Sat 04:00:30 PM 41.5517 -84.1208 298° West 343 395 34,000  Level Cleveland Center
Sat 04:01:32 PM 41.5972 -84.2331 299° West 343 395 34,000  Level Cleveland Center
Sat 04:02:33 PM 41.6492 -84.3619 298° West 344 396 34,000  Level Cleveland Center
Sat 04:03:35 PM 41.6936 -84.4742 298° West 344 396 34,000  Level Cleveland Center
Sat 04:04:37 PM 41.7378 -84.5867 298° West 343 395 34,000  Level Cleveland Center
Sat 04:05:39 PM 41.7831 -84.6992 298° West 344 396 34,000  Level Cleveland Center
Sat 04:06:41 PM 41.8367 -84.8347 298° West 345 397 34,000  Level Cleveland Center
Sat 04:07:43 PM 41.8806 -84.9483 297° West 345 397 34,000  Level Cleveland Center
Sat 04:08:44 PM 41.9261 -85.0628 298° West 347 399 34,000  Level Cleveland Center
Sat 04:09:46 PM 41.9703 -85.1764 298° West 347 399 34,000  Level Cleveland Center
Sat 04:10:48 PM 42.0147 -85.2911 298° West 347 399 34,000  Level Cleveland Center
Sat 04:11:50 PM 42.0583 -85.4056 297° West 348 400 34,000  Level Cleveland Center
Sat 04:12:52 PM 42.1119 -85.5442 298° West 349 402 34,000  Level Cleveland Center
Sat 04:13:53 PM 42.1561 -85.6594 297° West 349 402 34,000  Level Cleveland Center
Sat 04:14:55 PM 42.2008 -85.7761 297° West 349 402 34,000  Level Cleveland Center
Sat 04:15:57 PM 42.2447 -85.8933 297° West 350 403 34,000  Level Cleveland Center
Sat 04:16:59 PM 42.2892 -86.0106 297° West 350 403 34,000  Level Cleveland Center
Sat 04:18:01 PM 42.3400 -86.1442 297° West 352 405 34,000  Level Cleveland Center
Sat 04:19:02 PM 42.3894 -86.2594 300° West 352 405 34,000  Level Cleveland Center
Sat 04:20:27 PM 42.4644 -86.4153 303° West 351 404 34,000  Level Chicago Center
Sat 04:21:29 PM 42.5181 -86.5297 302° West 355 409 34,000  Level Chicago Center
Sat 04:22:31 PM 42.5719 -86.6431 303° West 353 406 34,000  Level Chicago Center
Sat 04:23:33 PM 42.6264 -86.7561 303° West 353 406 34,000  Level Chicago Center
Sat 04:24:35 PM 42.6908 -86.8928 303° West 354 407 34,000  Level Chicago Center
Sat 04:25:37 PM 42.7442 -87.0058 303° West 351 404 34,000  Level Chicago Center
Sat 04:26:39 PM 42.7975 -87.1183 303° West 352 405 34,000  Level Chicago Center
Sat 04:27:41 PM 42.8500 -87.2336 302° West 355 409 34,000  Level Chicago Center
Sat 04:28:43 PM 42.9042 -87.3483 303° West 357 411 34,000  Level Chicago Center
Sat 04:29:45 PM 42.9656 -87.4789 303° West 356 410 34,000  Level Chicago Center
Sat 04:30:47 PM 43.0194 -87.5917 303° West 356 410 34,000  Level Chicago Center
Sat 04:31:49 PM 43.0683 -87.6997 302° West 340 391 34,000  Level Chicago Center
Sat 04:32:51 PM 43.1158 -87.8031 302° West 326 375 34,000  Level Chicago Center
Sat 04:33:53 PM 43.1631 -87.9061 302° West 323 372 34,000  Level Chicago Center
Sat 04:34:55 PM 43.2206 -88.0314 302° West 324 373 34,000  Level Chicago Center
Sat 04:35:57 PM 43.2694 -88.1361 303° West 325 374 34,000  Level Chicago Center
Sat 04:36:59 PM 43.3183 -88.2433 302° West 331 381 34,000  Level Chicago Center
Sat 04:38:01 PM 43.3661 -88.3494 302° West 328 377 34,000  Level Chicago Center
Sat 04:39:03 PM 43.4217 -88.4692 303° West 336 387 34,000  Level Chicago Center
Sat 04:40:05 PM 43.5019 -88.5261 333° Northwest 344 396 34,000  Level Chicago Center
Sat 04:41:07 PM 43.6094 -88.5333 357° North 379 436 34,000  Level Chicago Center
Sat 04:42:09 PM 43.7006 -88.5786 340° North 370 426 34,000  Level Chicago Center
Sat 04:43:11 PM 43.7369 -88.6928 294° West 341 392 34,000  Level Chicago Center
Sat 04:44:13 PM 43.7781 -88.8361 292° West 338 389 34,000  Level Chicago Center
Sat 04:45:19 PM 43.8117 -88.9553 291° West 335 386 34,000  Level Minneapolis Center
Sat 04:46:17 PM 43.8431 -89.0789 289° West 338 389 34,000  Level Chicago Center
Sat 04:47:19 PM 43.8764 -89.2008 291° West 338 389 34,000  Level Chicago Center
Sat 04:48:21 PM 43.9089 -89.3236 290° West 339 390 34,000  Level Chicago Center
Sat 04:49:23 PM 43.9422 -89.4475 291° West 340 391 34,000  Level Chicago Center
Sat 04:50:25 PM 43.9814 -89.5967 290° West 344 396 34,000  Level Chicago Center
Sat 04:51:29 PM 44.0139 -89.7217 290° West 345 397 34,000  Level Minneapolis Center
Sat 04:52:30 PM 44.0464 -89.8467 290° West 345 397 34,000  Level Minneapolis Center
Sat 04:53:32 PM 44.0800 -89.9678 291° West 340 391 34,000  Level Minneapolis Center
Sat 04:54:34 PM 44.1286 -90.0797 301° West 340 391 34,000  Level Minneapolis Center
Sat 04:55:35 PM 44.1694 -90.1972 296° West 340 391 34,000  Level Minneapolis Center
Sat 04:56:37 PM 44.2183 -90.3358 296° West 336 387 34,000  Level Minneapolis Center
Sat 04:57:38 PM 44.2583 -90.4539 295° West 336 387 34,000 -390 Level Minneapolis Center
Sat 04:58:40 PM 44.2950 -90.5575 296° West 336 387 33,200 -1,306 Descending Minneapolis Center
Sat 04:59:42 PM 44.3447 -90.7008 296° West 364 419 31,300 -1,756 Descending Minneapolis Center
Sat 05:00:43 PM 44.3908 -90.8367 295° West 382 440 29,600 -1,756 Descending Minneapolis Center
Sat 05:01:45 PM 44.4447 -90.9928 296° West 392 451 27,700 -1,742 Descending Minneapolis Center
Sat 05:02:47 PM 44.4911 -91.1328 295° West 394 453 26,000 -1,805 Descending Minneapolis Center
Sat 05:03:48 PM 44.5375 -91.2692 296° West 395 455 24,000 -1,951 Descending Minneapolis Center
Sat 05:04:50 PM 44.5794 -91.3972 295° West 374 430 22,000 -1,951 Descending Minneapolis Center
Sat 05:05:51 PM 44.6214 -91.5192 296° West 357 411 20,000 -1,951 Descending Minneapolis Center
Sat 05:06:53 PM 44.6619 -91.6392 295° West 346 398 18,000 -2,129 Descending Minneapolis Center
Sat 05:07:55 PM 44.7131 -91.7969 295° West 365 420 15,600 -2,146 Descending Minneapolis Center
Sat 05:08:56 PM 44.7539 -91.9197 295° West 351 404 13,600 -1,951 Descending Minneapolis Center
Sat 05:09:58 PM 44.7931 -92.0369 295° West 335 386 11,600 -1,707 Descending Minneapolis Center
Sat 05:10:59 PM 44.8308 -92.1558 294° West 335 386 10,100 -780 Descending Minneapolis Center
Sat 05:12:01 PM 44.8694 -92.2761 294° West 336 387 10,000 -48 Descending Minneapolis Center
Sat 05:13:03 PM 44.8733 -92.4025 273° West 341 392 10,000  Level Minneapolis Center
Sat 05:14:04 PM 44.8464 -92.5297 253° West 342 394 10,000  Level Minneapolis Center
Sat 05:15:06 PM 44.8161 -92.6861 255° West 343 395 10,000  Level Minneapolis Center
Sat 05:16:07 PM 44.7917 -92.8150 255° West 343 395 10,000 -195 Level Minneapolis Center
Sat 05:17:09 PM 44.7736 -92.9275 257° West 294 338 9,600 -488 Descending Minneapolis Center
Sat 05:18:10 PM 44.7833 -93.0325 277° West 275 316 9,000 -634 Descending Minneapolis Center
Sat 05:19:12 PM 44.7950 -93.1397 279° West 278 320 8,300 -488 Descending Minneapolis Center
Sat 05:20:13 PM 44.8231 -93.2586 288° West 280 322 8,000 -146 Descending Minneapolis Center
Sat 05:21:15 PM 44.8528 -93.3581 293° West 280 322 8,000 -829 Level Minneapolis Center
Sat 05:22:16 PM 44.8811 -93.4589 292° West 280 322 6,300 -1,415 Descending Minneapolis Center
Sat 05:23:18 PM 44.9092 -93.5503 293° West 259 298 5,100 -683 Descending Minneapolis Center
Sat 05:24:19 PM 44.9464 -93.5217 29° Northeast 196 226 4,900 -585 Descending Minneapolis Center
Sat 05:25:21 PM 44.9425 -93.4564 95° East 171 197 3,900 -829 Descending Minneapolis Center
Sat 05:26:22 PM 44.9369 -93.3972 98° East 155 178 3,200 -585 Descending Minneapolis Center
Sat 05:27:24 PM 44.9317 -93.3458 98° East 136 157 2,700 -634 Descending Minneapolis Center
Sat 05:28:25 PM 44.9142 -93.2936 115° Southeast 126 145 1,900 -780 Descending Minneapolis Center
Sat 05:29:27 PM 44.8947 -93.2494 122° Southeast 129 148 1,100 -774 Descending Minneapolis Center
Sat 05:31:00 PM 44.8820 -93.2218 98° East  Level Estimated
Sat 05:38:00 PM 44.8820 -93.2218 98° East  Level Estimated

Login

Don't have an account? Register now (free) for customized features, flight alerts, and more!